Погода в Копорье

Россия / Санкт-Петербург и Ленинградская область     59°42′15″N   29°02′55″E
темп.,
°C
ветер,
м/с
пор.,
м/с
влажн.,
%
обл.,
%
осадки,
мм/ч
давл.,
гПа
погр.,
м
3 марта, ср
ср300:00−1зсз512909 0.0 1019359
03:00−2зсз412915 0.0 1019366
06:00−2з4109518 0.0 1017363
09:00−2з5119340 0.0 1016459
12:00+1з6127830 0.0 1014654
15:00+2з7147764 0.0 1011806
18:00+2з71486100 0.2 1007782
21:00+2з71489100 0.4 1005828
4 марта, чт
чт400:00−1зсз51284100 0.2 1004691
03:00−3зсз4108767 0.2 1005381
06:00−4зсз37900 0.0 1004273
09:00−4зсз25931 0.0 1004287
12:00−4ссз468663 0.0 1004467
15:00−4ссз588179 0.3 1005766
18:00−5ссз5108189 0.1 1005787
21:00−6ссз3108370 0.1 1006555
5 марта, пт
пт500:00−7сз388549 0.0 1007388
03:00−7сз488163 0.0 1008455
06:00−8сз388554 0.0 1009437
09:00−9ссз388855 0.0 1010467
12:00−8ссз4683100 0.1 1012579
15:00−7ссз3583100 0.3 1014548
18:00−8сз368087 0.0 1015386
21:00−9сз248051 0.0 1017117
6 марта, сб
сб600:00−8з248280 0.0 1018155
03:00−8зсз249185 0.0 1018111
06:00−9з229418 0.0 101748
09:00−8юз369216 0.0 1016232
12:00−4юз597457 0.0 1014824
15:00−4ююз7129078 0.3 1009890
18:00−3юз81693100 1.8 10021207
21:00−1зюз91895100 6.9 9961195
7 марта, вс
вс700:000з91688100 3.4 9911197
03:00−6сз101662100 3.9 9921340
06:00−9з514699 0.0 993868
09:00−8зсз6146947 0.1 9901603
12:00−8зсз8148895 0.3 9901217
15:00−6сз10168997 1.8 9921427
18:00−7ссз71283100 0.4 997796
21:00−9с5118998 0.4 1002640